ProjectID,Date,Electric Generation,Electric Utility Import,Facility Electric Load
,YYYY-MM-DD,kW,kW,kW
223,2014-12-01,0.0,,0.0
223,2014-12-02,0.0,,0.0
223,2014-12-03,0.0,,0.0
223,2014-12-04,0.0,,0.0
223,2014-12-05,0.0,,0.0
223,2014-12-06,0.0,,0.0
223,2014-12-07,0.0,,0.0
223,2014-12-08,0.0,,0.0
223,2014-12-09,0.0,,0.0
223,2014-12-10,0.0,,0.0
223,2014-12-11,0.0,,0.0
223,2014-12-12,0.0,,0.0
223,2014-12-13,0.0,,0.0
223,2014-12-14,0.0,,0.0
223,2014-12-15,0.0,,0.0
223,2014-12-16,0.0,,0.0
223,2014-12-17,7.660416666666666,,7.660416666666666
223,2014-12-18,10.730416666666665,,10.730416666666665
223,2014-12-19,9.821666666666667,,9.821666666666667
223,2014-12-20,2.1645833333333333,,2.1645833333333333
223,2014-12-21,2.76125,,2.76125
223,2014-12-22,1.89625,,1.89625
223,2014-12-23,1.9108333333333334,,1.9108333333333334
223,2014-12-24,0.8933333333333334,,0.8933333333333334
223,2014-12-25,8.289583333333333,,8.289583333333333
223,2014-12-26,10.911666666666667,,10.911666666666667
223,2014-12-27,11.619583333333333,,11.619583333333333
223,2014-12-28,4.4262500000000005,,4.4262500000000005
223,2014-12-29,9.282083333333334,,9.282083333333334
223,2014-12-30,7.475833333333333,,7.475833333333333
223,2014-12-31,9.737916666666667,,9.737916666666667
223,2015-01-01,11.03875,,11.03875
223,2015-01-02,12.230416666666665,,12.230416666666665
223,2015-01-03,2.65875,,2.65875
223,2015-01-04,2.2125,,2.2125
223,2015-01-05,10.979583333333332,,10.979583333333332
223,2015-01-06,0.605,,0.605
223,2015-01-07,6.855416666666667,,6.855416666666667
223,2015-01-08,5.878333333333334,,5.878333333333334
223,2015-01-09,7.1620833333333325,,7.1620833333333325
223,2015-01-10,12.843333333333334,,12.843333333333334
223,2015-01-11,9.135416666666666,,9.135416666666666
223,2015-01-12,1.1191666666666666,,1.1191666666666666
223,2015-01-13,12.745833333333332,,12.745833333333332
223,2015-01-14,4.2804166666666665,,4.2804166666666665
223,2015-01-15,12.5,,12.5
223,2015-01-16,12.580833333333333,,12.580833333333333
223,2015-01-17,6.357083333333333,,6.357083333333333
223,2015-01-18,0.48541666666666666,,0.48541666666666666
223,2015-01-19,0.0,,0.0
223,2015-01-20,11.5875,,11.5875
223,2015-01-21,9.226666666666667,,9.226666666666667
223,2015-01-22,10.367083333333333,,10.367083333333333
223,2015-01-23,14.330416666666666,,14.330416666666666
223,2015-01-24,0.01958333333333333,,0.01958333333333333
223,2015-01-25,8.061666666666666,,8.061666666666666
223,2015-01-26,2.8325,,2.8325
223,2015-01-27,1.54875,,1.54875
223,2015-01-28,11.9775,,11.9775
223,2015-01-29,11.065,,11.065
223,2015-01-30,4.8237499999999995,,4.8237499999999995
223,2015-01-31,7.508333333333333,,7.508333333333333
223,2015-02-01,4.8566666666666665,,4.8566666666666665
223,2015-02-02,0.010833333333333334,,0.010833333333333334
223,2015-02-03,0.16666666666666666,,0.16666666666666666
223,2015-02-04,0.0,,0.0
223,2015-02-05,0.0,,0.0
223,2015-02-06,0.0,,0.0
223,2015-02-07,0.0,,0.0
223,2015-02-08,0.0,,0.0
223,2015-02-09,0.0,,0.0
223,2015-02-10,0.0,,0.0
223,2015-02-11,0.0,,0.0
223,2015-02-12,0.0,,0.0
223,2015-02-13,0.0,,0.0
223,2015-02-14,0.0,,0.0
223,2015-02-15,0.0,,0.0
223,2015-02-16,0.0,,0.0
223,2015-02-17,0.0,,0.0
223,2015-02-18,0.0,,0.0
223,2015-02-19,0.0,,0.0
223,2015-02-20,0.0,,0.0
223,2015-02-21,0.0,,0.0
223,2015-02-22,0.0,,0.0
223,2015-02-23,0.0,,0.0
223,2015-02-24,0.0,,0.0
223,2015-02-25,0.0,,0.0
223,2015-02-26,0.0,,0.0
223,2015-02-27,0.0,,0.0
223,2015-02-28,0.0,,0.0
223,2015-03-01,3.919583333333333,,3.919583333333333
223,2015-03-02,0.6858333333333334,,0.6858333333333334
223,2015-03-03,0.6754166666666667,,0.6754166666666667
223,2015-03-04,2.38625,,2.38625
223,2015-03-05,0.005,,0.005
223,2015-03-06,0.07916666666666666,,0.07916666666666666
223,2015-03-07,0.25,,0.25
223,2015-03-08,10.676666666666668,,10.676666666666668
223,2015-03-09,26.115416666666665,,26.115416666666665
223,2015-03-10,11.626249999999999,,11.626249999999999
223,2015-03-11,20.7025,,20.7025
223,2015-03-12,26.937083333333334,,26.937083333333334
223,2015-03-13,25.47458333333333,,25.47458333333333
223,2015-03-14,4.4279166666666665,,4.4279166666666665
223,2015-03-15,6.666250000000001,,6.666250000000001
223,2015-03-16,17.116666666666667,,17.116666666666667
223,2015-03-17,16.645833333333332,,16.645833333333332
223,2015-03-18,20.528333333333332,,20.528333333333332
223,2015-03-19,30.625833333333333,,30.625833333333333
223,2015-03-20,5.684583333333333,,5.684583333333333
223,2015-03-21,5.93625,,5.93625
223,2015-03-22,32.356249999999996,,32.356249999999996
223,2015-03-23,32.89083333333333,,32.89083333333333
223,2015-03-24,28.098333333333333,,28.098333333333333
223,2015-03-25,19.363333333333333,,19.363333333333333
223,2015-03-26,7.089583333333334,,7.089583333333334
223,2015-03-27,6.802916666666667,,6.802916666666667
223,2015-03-28,12.345416666666667,,12.345416666666667
223,2015-03-29,33.732083333333335,,33.732083333333335
223,2015-03-30,14.527083333333332,,14.527083333333332
223,2015-03-31,13.512500000000001,,13.512500000000001
223,2015-04-01,31.527083333333334,,31.527083333333334
223,2015-04-02,30.606666666666666,,30.606666666666666
223,2015-04-03,6.2370833333333335,,6.2370833333333335
223,2015-04-04,31.285833333333333,,31.285833333333333
223,2015-04-05,23.444999999999997,,23.444999999999997
223,2015-04-06,29.905833333333334,,29.905833333333334
223,2015-04-07,8.851666666666667,,8.851666666666667
223,2015-04-08,8.907916666666667,,8.907916666666667
223,2015-04-09,5.035,,5.035
223,2015-04-10,8.292083333333332,,8.292083333333332
223,2015-04-11,33.526666666666664,,33.526666666666664
223,2015-04-12,33.128750000000004,,33.128750000000004
223,2015-04-13,29.41541666666667,,29.41541666666667
223,2015-04-14,8.709166666666667,,8.709166666666667
223,2015-04-15,32.64958333333333,,32.64958333333333
223,2015-04-16,31.474166666666665,,31.474166666666665
223,2015-04-17,13.822916666666666,,13.822916666666666
223,2015-04-18,30.43166666666667,,30.43166666666667
223,2015-04-19,33.09166666666667,,33.09166666666667
223,2015-04-20,4.022083333333334,,4.022083333333334
223,2015-04-21,29.480833333333333,,29.480833333333333
223,2015-04-22,24.464583333333334,,24.464583333333334
223,2015-04-23,20.617083333333333,,20.617083333333333
223,2015-04-24,26.87125,,26.87125
223,2015-04-25,35.575833333333335,,35.575833333333335
223,2015-04-26,28.93166666666667,,28.93166666666667
223,2015-04-27,21.01,,21.01
223,2015-04-28,34.635,,34.635
223,2015-04-29,33.46375,,33.46375
223,2015-04-30,28.994583333333335,,28.994583333333335
223,2015-05-01,26.0575,,26.0575
223,2015-05-02,33.944583333333334,,33.944583333333334
223,2015-05-03,33.282916666666665,,33.282916666666665
223,2015-05-04,31.81125,,31.81125
223,2015-05-05,23.612916666666667,,23.612916666666667
223,2015-05-06,12.735,,12.735
223,2015-05-07,32.33875,,32.33875
223,2015-05-08,31.971666666666668,,31.971666666666668
223,2015-05-09,12.292916666666665,,12.292916666666665
223,2015-05-10,25.46375,,25.46375
223,2015-05-11,23.85875,,23.85875
223,2015-05-12,26.7825,,26.7825
223,2015-05-13,22.89375,,22.89375
223,2015-05-14,34.750416666666666,,34.750416666666666
223,2015-05-15,26.203333333333333,,26.203333333333333
223,2015-05-16,18.972916666666666,,18.972916666666666
223,2015-05-17,24.303749999999997,,24.303749999999997
223,2015-05-18,8.826666666666666,,8.826666666666666
223,2015-05-19,20.62,,20.62
223,2015-05-20,29.64375,,29.64375
223,2015-05-21,14.835,,14.835
223,2015-05-22,28.691666666666666,,28.691666666666666
223,2015-05-23,37.66791666666666,,37.66791666666666
223,2015-05-24,34.58083333333334,,34.58083333333334
223,2015-05-25,31.28833333333333,,31.28833333333333
223,2015-05-26,32.04625,,32.04625
223,2015-05-27,26.109583333333333,,26.109583333333333
223,2015-05-28,26.056250000000002,,26.056250000000002
223,2015-05-29,33.90875,,33.90875
223,2015-05-30,33.949999999999996,,33.949999999999996
223,2015-05-31,22.925833333333333,,22.925833333333333
223,2015-06-01,5.3220833333333335,,5.3220833333333335
223,2015-06-02,6.034583333333334,,6.034583333333334
223,2015-06-03,33.57375,,33.57375
223,2015-06-04,21.181250000000002,,21.181250000000002
223,2015-06-05,17.71625,,17.71625
223,2015-06-06,21.971249999999998,,21.971249999999998
223,2015-06-07,36.794583333333335,,36.794583333333335
223,2015-06-08,25.292916666666667,,25.292916666666667
223,2015-06-09,22.9675,,22.9675
223,2015-06-10,34.42791666666667,,34.42791666666667
223,2015-06-11,26.758750000000003,,26.758750000000003
223,2015-06-12,29.2925,,29.2925
223,2015-06-13,32.43875,,32.43875
223,2015-06-14,29.279583333333335,,29.279583333333335
223,2015-06-15,14.3975,,14.3975
223,2015-06-16,15.395416666666668,,15.395416666666668
223,2015-06-17,27.265833333333333,,27.265833333333333
223,2015-06-18,11.305416666666666,,11.305416666666666
223,2015-06-19,23.6525,,23.6525
223,2015-06-20,5.2941666666666665,,5.2941666666666665
223,2015-06-21,23.544583333333335,,23.544583333333335
223,2015-06-22,33.07083333333333,,33.07083333333333
223,2015-06-23,23.950833333333335,,23.950833333333335
223,2015-06-24,36.250416666666666,,36.250416666666666
223,2015-06-25,25.828333333333333,,25.828333333333333
223,2015-06-26,27.028750000000002,,27.028750000000002
223,2015-06-27,8.778333333333334,,8.778333333333334
223,2015-06-28,13.762500000000001,,13.762500000000001
223,2015-06-29,26.163749999999997,,26.163749999999997
223,2015-06-30,31.00208333333333,,31.00208333333333
223,2015-07-01,26.444166666666664,,26.444166666666664
223,2015-07-02,21.25916666666667,,21.25916666666667
223,2015-07-03,32.558749999999996,,32.558749999999996
223,2015-07-04,16.559166666666666,,16.559166666666666
223,2015-07-05,30.474999999999998,,30.474999999999998
223,2015-07-06,26.08458333333333,,26.08458333333333
223,2015-07-07,28.037499999999998,,28.037499999999998
223,2015-07-08,17.921666666666667,,17.921666666666667
223,2015-07-09,14.105416666666665,,14.105416666666665
223,2015-07-10,33.45166666666667,,33.45166666666667
223,2015-07-11,32.0,,32.0
223,2015-07-12,29.572916666666668,,29.572916666666668
223,2015-07-13,29.18625,,29.18625
223,2015-07-14,17.093333333333334,,17.093333333333334
223,2015-07-15,8.607916666666666,,8.607916666666666
223,2015-07-16,35.06583333333334,,35.06583333333334
223,2015-07-17,33.22208333333334,,33.22208333333334
223,2015-07-18,17.394166666666667,,17.394166666666667
223,2015-07-19,31.310833333333335,,31.310833333333335
223,2015-07-20,26.15833333333333,,26.15833333333333
223,2015-07-21,15.810416666666667,,15.810416666666667
223,2015-07-22,32.08583333333333,,32.08583333333333
223,2015-07-23,34.0025,,34.0025
223,2015-07-24,30.927083333333332,,30.927083333333332
223,2015-07-25,33.16041666666667,,33.16041666666667
223,2015-07-26,25.84166666666667,,25.84166666666667
223,2015-07-27,26.341250000000002,,26.341250000000002
223,2015-07-28,23.17125,,23.17125
223,2015-07-29,24.637916666666666,,24.637916666666666
223,2015-07-30,12.720833333333333,,12.720833333333333
223,2015-07-31,31.092083333333335,,31.092083333333335
223,2015-08-01,30.550833333333333,,30.550833333333333
223,2015-08-02,32.42541666666667,,32.42541666666667
223,2015-08-03,31.36916666666667,,31.36916666666667
223,2015-08-04,31.290000000000003,,31.290000000000003
223,2015-08-05,26.34,,26.34
223,2015-08-06,28.064166666666665,,28.064166666666665
223,2015-08-07,32.764583333333334,,32.764583333333334
223,2015-08-08,27.724166666666665,,27.724166666666665
223,2015-08-09,30.555000000000003,,30.555000000000003
223,2015-08-10,28.71875,,28.71875
223,2015-08-11,10.611666666666666,,10.611666666666666
223,2015-08-12,30.649583333333336,,30.649583333333336
223,2015-08-13,31.559166666666666,,31.559166666666666
223,2015-08-14,30.265,,30.265
223,2015-08-15,29.33,,29.33
223,2015-08-16,24.112916666666667,,24.112916666666667
223,2015-08-17,23.74875,,23.74875
223,2015-08-18,27.9675,,27.9675
223,2015-08-19,16.575,,16.575
223,2015-08-20,23.02541666666667,,23.02541666666667
223,2015-08-21,23.156666666666666,,23.156666666666666
223,2015-08-22,30.687083333333334,,30.687083333333334
223,2015-08-23,22.90833333333333,,22.90833333333333
223,2015-08-24,25.261666666666667,,25.261666666666667
223,2015-08-25,27.643333333333334,,27.643333333333334
223,2015-08-26,27.497083333333332,,27.497083333333332
223,2015-08-27,27.224999999999998,,27.224999999999998
223,2015-08-28,30.515416666666667,,30.515416666666667
223,2015-08-29,28.189999999999998,,28.189999999999998
223,2015-08-30,23.817916666666665,,23.817916666666665
223,2015-08-31,18.904166666666665,,18.904166666666665
223,2015-09-01,24.005416666666665,,24.005416666666665
223,2015-09-02,22.673333333333332,,22.673333333333332
223,2015-09-03,24.00208333333333,,24.00208333333333
223,2015-09-04,13.570833333333333,,13.570833333333333
223,2015-09-05,27.75791666666667,,27.75791666666667
223,2015-09-06,27.107083333333335,,27.107083333333335
223,2015-09-07,26.555833333333336,,26.555833333333336
223,2015-09-08,24.756249999999998,,24.756249999999998
223,2015-09-09,18.955833333333334,,18.955833333333334
223,2015-09-10,5.546666666666667,,5.546666666666667
223,2015-09-11,18.546666666666667,,18.546666666666667
223,2015-09-12,12.48625,,12.48625
223,2015-09-13,20.73,,20.73
223,2015-09-14,28.781666666666666,,28.781666666666666
223,2015-09-15,27.071250000000003,,27.071250000000003
223,2015-09-16,25.717083333333335,,25.717083333333335
223,2015-09-17,24.842916666666667,,24.842916666666667
223,2015-09-18,24.552916666666665,,24.552916666666665
223,2015-09-19,24.477500000000003,,24.477500000000003
223,2015-09-20,23.133333333333336,,23.133333333333336
223,2015-09-21,21.643333333333334,,21.643333333333334
223,2015-09-22,11.323333333333332,,11.323333333333332
223,2015-09-23,24.342916666666667,,24.342916666666667
223,2015-09-24,24.941666666666666,,24.941666666666666
223,2015-09-25,21.330000000000002,,21.330000000000002
223,2015-09-26,22.209166666666665,,22.209166666666665
223,2015-09-27,14.059583333333334,,14.059583333333334
223,2015-09-28,14.61625,,14.61625
223,2015-09-29,14.8525,,14.8525
223,2015-09-30,6.758333333333333,,6.758333333333333
223,2015-10-01,4.84875,,4.84875
223,2015-10-02,3.0220833333333332,,3.0220833333333332
223,2015-10-03,2.7983333333333333,,2.7983333333333333
223,2015-10-04,15.509166666666667,,15.509166666666667
223,2015-10-05,22.140416666666667,,22.140416666666667
223,2015-10-06,23.883333333333336,,23.883333333333336
223,2015-10-07,18.598333333333333,,18.598333333333333
223,2015-10-08,17.973333333333333,,17.973333333333333
223,2015-10-09,15.152500000000002,,15.152500000000002
223,2015-10-10,24.527083333333334,,24.527083333333334
223,2015-10-11,23.368333333333336,,23.368333333333336
223,2015-10-12,22.691666666666666,,22.691666666666666
223,2015-10-13,14.988750000000001,,14.988750000000001
223,2015-10-14,15.440833333333332,,15.440833333333332
223,2015-10-15,22.498333333333335,,22.498333333333335
223,2015-10-16,18.399166666666666,,18.399166666666666
223,2015-10-17,20.348333333333333,,20.348333333333333
223,2015-10-18,19.347916666666666,,19.347916666666666
223,2015-10-19,20.24625,,20.24625
223,2015-10-20,19.629166666666666,,19.629166666666666
223,2015-10-21,18.406666666666666,,18.406666666666666
223,2015-10-22,14.89875,,14.89875
223,2015-10-23,20.755,,20.755
223,2015-10-24,7.78375,,7.78375
223,2015-10-25,8.082083333333333,,8.082083333333333
223,2015-10-26,20.173333333333336,,20.173333333333336
223,2015-10-27,10.924999999999999,,10.924999999999999
223,2015-10-28,1.6470833333333335,,1.6470833333333335
223,2015-10-29,15.003333333333332,,15.003333333333332
223,2015-10-30,18.4525,,18.4525
223,2015-10-31,14.110833333333334,,14.110833333333334
223,2015-11-01,6.584583333333334,,6.584583333333334
223,2015-11-02,8.915000000000001,,8.915000000000001
223,2015-11-03,16.179583333333333,,16.179583333333333
223,2015-11-04,17.03291666666667,,17.03291666666667
223,2015-11-05,6.365833333333334,,6.365833333333334
223,2015-11-06,7.87375,,7.87375
223,2015-11-07,4.727083333333334,,4.727083333333334
223,2015-11-08,16.34958333333333,,16.34958333333333
223,2015-11-09,13.015416666666667,,13.015416666666667
223,2015-11-10,1.4316666666666666,,1.4316666666666666
223,2015-11-11,6.120833333333334,,6.120833333333334
223,2015-11-12,2.155,,2.155
223,2015-11-13,14.159166666666666,,14.159166666666666
223,2015-11-14,15.793333333333335,,15.793333333333335
223,2015-11-15,14.03125,,14.03125
223,2015-11-16,13.865833333333333,,13.865833333333333
223,2015-11-17,14.585416666666667,,14.585416666666667
223,2015-11-18,9.897083333333333,,9.897083333333333
223,2015-11-19,3.3025,,3.3025
223,2015-11-20,15.805833333333332,,15.805833333333332
223,2015-11-21,14.206249999999999,,14.206249999999999
223,2015-11-22,3.7975,,3.7975
223,2015-11-23,11.28125,,11.28125
223,2015-11-24,12.043750000000001,,12.043750000000001
223,2015-11-25,12.67875,,12.67875
223,2015-11-26,10.605833333333333,,10.605833333333333
223,2015-11-27,11.357916666666666,,11.357916666666666
223,2015-11-28,3.7916666666666665,,3.7916666666666665
223,2015-11-29,11.628333333333332,,11.628333333333332
223,2015-11-30,11.472083333333332,,11.472083333333332
223,2015-12-01,1.2895833333333333,,1.2895833333333333
223,2015-12-02,1.8095833333333333,,1.8095833333333333
223,2015-12-03,6.84375,,6.84375
223,2015-12-04,12.083333333333334,,12.083333333333334
223,2015-12-05,11.240833333333333,,11.240833333333333
223,2015-12-06,11.403333333333334,,11.403333333333334
223,2015-12-07,11.427083333333334,,11.427083333333334
223,2015-12-08,8.604166666666666,,8.604166666666666
223,2015-12-09,3.317083333333333,,3.317083333333333
223,2015-12-10,10.414583333333333,,10.414583333333333
223,2015-12-11,7.335416666666667,,7.335416666666667
223,2015-12-12,6.604166666666667,,6.604166666666667
223,2015-12-13,8.205,,8.205
223,2015-12-14,2.95375,,2.95375
223,2015-12-15,10.73625,,10.73625
223,2015-12-16,9.875,,9.875
223,2015-12-17,0.6795833333333333,,0.6795833333333333
223,2015-12-18,2.4458333333333333,,2.4458333333333333
223,2015-12-19,8.618333333333334,,8.618333333333334
223,2015-12-20,11.375833333333333,,11.375833333333333
223,2015-12-21,4.211666666666667,,4.211666666666667
223,2015-12-22,0.9479166666666666,,0.9479166666666666
223,2015-12-23,1.0091666666666665,,1.0091666666666665
223,2015-12-24,2.41,,2.41
223,2015-12-25,3.642916666666667,,3.642916666666667
223,2015-12-26,3.22,,3.22
223,2015-12-27,3.1216666666666666,,3.1216666666666666
223,2015-12-28,9.371666666666666,,9.371666666666666
223,2015-12-29,1.7058333333333333,,1.7058333333333333
223,2015-12-30,1.6279166666666667,,1.6279166666666667
223,2015-12-31,4.665416666666666,,4.665416666666666
223,2016-01-01,5.855416666666667,,5.855416666666667
223,2016-01-02,10.76,,10.76
223,2016-01-03,11.7025,,11.7025
223,2016-01-04,13.765,,13.765
223,2016-01-05,5.861249999999999,,5.861249999999999
223,2016-01-06,11.695,,11.695
223,2016-01-07,9.218333333333334,,9.218333333333334
223,2016-01-08,8.127083333333333,,8.127083333333333
223,2016-01-09,0.0,,0.0
223,2016-01-10,3.89,,3.89
223,2016-01-11,12.429166666666667,,12.429166666666667
223,2016-01-12,6.327916666666667,,6.327916666666667
223,2016-01-13,12.433750000000002,,12.433750000000002
223,2016-01-14,7.9175,,7.9175
223,2016-01-15,8.900416666666667,,8.900416666666667
223,2016-01-16,7.43375,,7.43375
223,2016-01-17,2.4229166666666666,,2.4229166666666666
223,2016-01-18,12.524583333333332,,12.524583333333332
223,2016-01-19,6.5375000000000005,,6.5375000000000005
223,2016-01-20,12.415833333333333,,12.415833333333333
223,2016-01-21,13.834583333333333,,13.834583333333333
223,2016-01-22,6.836666666666667,,6.836666666666667
223,2016-01-23,0.5508333333333334,,0.5508333333333334
223,2016-01-24,4.960416666666666,,4.960416666666666
223,2016-01-25,4.180833333333333,,4.180833333333333
223,2016-01-26,4.909583333333333,,4.909583333333333
223,2016-01-27,11.549583333333333,,11.549583333333333
223,2016-01-28,13.161666666666667,,13.161666666666667
223,2016-01-29,5.94875,,5.94875
223,2016-01-30,13.237916666666665,,13.237916666666665
223,2016-01-31,15.009166666666667,,15.009166666666667
223,2016-02-01,9.230833333333333,,9.230833333333333
223,2016-02-02,16.055833333333332,,16.055833333333332
223,2016-02-03,1.2754166666666666,,1.2754166666666666
223,2016-02-04,6.261666666666667,,6.261666666666667
223,2016-02-05,0.29083333333333333,,0.29083333333333333
223,2016-02-06,7.6375,,7.6375
223,2016-02-07,13.742916666666666,,13.742916666666666
223,2016-02-08,0.9925,,0.9925
223,2016-02-09,7.465833333333333,,7.465833333333333
223,2016-02-10,7.958333333333333,,7.958333333333333
223,2016-02-11,11.9825,,11.9825
223,2016-02-12,6.789166666666667,,6.789166666666667
223,2016-02-13,21.07166666666667,,21.07166666666667
223,2016-02-14,9.354583333333332,,9.354583333333332
223,2016-02-15,1.23125,,1.23125
223,2016-02-16,2.2270833333333333,,2.2270833333333333
223,2016-02-17,5.435416666666666,,5.435416666666666
223,2016-02-18,18.919583333333332,,18.919583333333332
223,2016-02-19,14.39125,,14.39125
223,2016-02-20,14.8225,,14.8225
223,2016-02-21,8.837083333333334,,8.837083333333334
223,2016-02-22,23.045833333333334,,23.045833333333334
223,2016-02-23,2.7687500000000003,,2.7687500000000003
223,2016-02-24,1.5208333333333333,,1.5208333333333333
223,2016-02-25,7.296250000000001,,7.296250000000001
223,2016-02-26,20.085,,20.085
223,2016-02-27,25.032083333333333,,25.032083333333333
223,2016-02-28,24.618333333333336,,24.618333333333336
223,2016-02-29,13.086666666666666,,13.086666666666666
223,2016-03-01,23.794166666666666,,23.794166666666666
223,2016-03-02,23.427916666666665,,23.427916666666665
223,2016-03-03,20.007083333333334,,20.007083333333334
223,2016-03-04,1.0754166666666667,,1.0754166666666667
223,2016-03-05,20.680416666666666,,20.680416666666666
223,2016-03-06,20.1725,,20.1725
223,2016-03-07,25.39833333333333,,25.39833333333333
223,2016-03-08,20.820833333333333,,20.820833333333333
223,2016-03-09,23.870833333333334,,23.870833333333334
223,2016-03-10,15.023333333333333,,15.023333333333333
223,2016-03-11,20.410833333333333,,20.410833333333333
223,2016-03-12,23.833333333333332,,23.833333333333332
223,2016-03-13,11.214166666666666,,11.214166666666666
223,2016-03-14,3.7270833333333333,,3.7270833333333333
223,2016-03-15,8.365,,8.365
223,2016-03-16,22.495416666666667,,22.495416666666667
223,2016-03-17,20.395,,20.395
223,2016-03-18,20.684166666666666,,20.684166666666666
223,2016-03-19,18.24416666666667,,18.24416666666667
223,2016-03-20,9.145,,9.145
223,2016-03-21,25.355833333333333,,25.355833333333333
223,2016-03-22,29.517916666666665,,29.517916666666665
223,2016-03-23,21.865,,21.865
223,2016-03-24,25.347083333333334,,25.347083333333334
223,2016-03-25,12.565,,12.565
223,2016-03-26,28.875416666666666,,28.875416666666666
223,2016-03-27,24.965416666666666,,24.965416666666666
223,2016-03-28,10.838333333333333,,10.838333333333333
223,2016-03-29,33.281666666666666,,33.281666666666666
223,2016-03-30,31.98625,,31.98625
223,2016-03-31,23.8175,,23.8175
223,2016-04-01,14.870416666666666,,14.870416666666666
223,2016-04-02,9.985,,9.985
223,2016-04-03,35.17916666666667,,35.17916666666667
223,2016-04-04,3.8154166666666662,,3.8154166666666662
223,2016-04-05,35.94083333333334,,35.94083333333334
223,2016-04-06,28.54041666666667,,28.54041666666667
223,2016-04-07,10.875,,10.875
223,2016-04-08,17.585833333333333,,17.585833333333333
223,2016-04-09,7.9816666666666665,,7.9816666666666665
223,2016-04-10,34.67375,,34.67375
223,2016-04-11,22.769166666666667,,22.769166666666667
223,2016-04-12,12.838333333333333,,12.838333333333333
223,2016-04-13,34.46375,,34.46375
223,2016-04-14,33.36416666666667,,33.36416666666667
223,2016-04-15,33.20458333333333,,33.20458333333333
223,2016-04-16,33.23416666666667,,33.23416666666667
223,2016-04-17,32.444583333333334,,32.444583333333334